Weather History for KIBM - January, 2013

Change the Weather History Date:

Saturday, January 12, 2013

  Actual Average (KSNY) Record (KSNY)
Temperature  
Mean Temperature 2 °F 29 °F  
Max Temperature 11 °F 42 °F 61 °F (1961)
Min Temperature -8 °F 16 °F -23 °F (1974)
Degree Days  
Heating Degree Days 64 36  
Month to date heating degree days 432  
Since 1 July heating degree days 2979  
Cooling Degree Days 0 0  
Month to date cooling degree days 0  
Year to date cooling degree days 0  
Moisture  
Dew Point -3 °F    
Average Humidity 75    
Maximum Humidity 83    
Minimum Humidity 69    
Precipitation  
Precipitation 0.00 in 0.00 in 0.03 in (1979)
Month to date precipitation 0.08  
Year to date precipitation 0.08  
Sea Level Pressure  
Sea Level Pressure 29.89 in    
Wind  
Wind Speed 12 mph (NW)    
Max Wind Speed 25 mph    
Max Gust Speed 30 mph    
Visibility 10 miles    
Events      
T = Trace of Precipitation, MM = Missing Value Source: NWS Daily Summary

Daily Weather History Graph

Daily Weather History Graph

Search for Another Location

Airport or City:

Trip Planner

Search our weather history database for the weather conditions in past years. The results will help you decide how hot, cold, wet, or windy it might be!

Date:

Astronomy

Jan. 12, 2013 Rise Set
Actual Time 8:18 AM CST 5:47 PM CST
Civil Twilight 7:48 AM CST 6:18 PM CST
Nautical Twilight 7:14 AM CST 6:52 PM CST
Astronomical Twilight 6:41 AM CST 7:25 PM CST
Moon 8:38 AM CST (1/12) 7:20 PM CST (1/12)
Length of Visible Light 10h 29m
Length of Day
9h 28m
New Moon, 1% of the Moon is Illuminated
Jan 12
New Moon
Jan 18
First Quarter
Jan 26
Full
Feb 3
Last Quarter
Feb 10
New

Hourly Weather History & Observations

Time (CST) Temp. Windchill Dew Point Humidity Pressure Visibility Wind Dir Wind Speed Gust Speed Precip Events Conditions
12:15 AM 4.1 °F -12.7 °F -2.0 °F 76% 29.77 in 10.0 mi NW 12.7 mph - N/A   Clear
12:35 AM 4.1 °F -12.0 °F -2.2 °F 75% 29.76 in 10.0 mi NW 11.5 mph - N/A   Scattered Clouds
12:55 AM 4.3 °F -12.5 °F -1.7 °F 76% 29.77 in 10.0 mi NW 12.7 mph - N/A   Mostly Cloudy
1:15 AM 5.2 °F -12.1 °F -1.3 °F 75% 29.77 in 10.0 mi WNW 13.8 mph 17.3 mph N/A   Mostly Cloudy
1:35 AM 5.0 °F -11.6 °F -1.3 °F 75% 29.77 in 10.0 mi WNW 12.7 mph 20.7 mph N/A   Mostly Cloudy
2:15 AM 4.1 °F -12.0 °F -2.0 °F 76% 29.79 in 10.0 mi NW 11.5 mph - N/A   Mostly Cloudy
2:35 AM 3.6 °F -11.8 °F -2.6 °F 76% 29.80 in 10.0 mi NW 10.4 mph - N/A   Mostly Cloudy
2:55 AM 3.6 °F -13.4 °F -2.4 °F 76% 29.81 in 10.0 mi NW 12.7 mph - N/A   Clear
3:15 AM 3.4 °F -14.4 °F -2.6 °F 76% 29.81 in 10.0 mi NW 13.8 mph - N/A   Scattered Clouds
3:35 AM 3.6 °F -13.4 °F -2.4 °F 76% 29.81 in 10.0 mi NW 12.7 mph - N/A   Scattered Clouds
3:55 AM 3.2 °F -13.9 °F -2.6 °F 77% 29.81 in 10.0 mi NW 12.7 mph - N/A   Clear
4:15 AM 2.3 °F -14.2 °F -3.3 °F 77% 29.81 in 10.0 mi NW 11.5 mph - N/A   Clear
4:35 AM 0.9 °F -14.2 °F -4.2 °F 79% 29.81 in 10.0 mi NW 9.2 mph - N/A   Clear
4:55 AM 1.2 °F -12.7 °F -3.6 °F 80% 29.83 in 10.0 mi West 8.1 mph - N/A   Clear
5:15 AM 1.6 °F -12.2 °F -3.8 °F 78% 29.83 in 10.0 mi WNW 8.1 mph - N/A   Clear
5:35 AM 1.4 °F -14.5 °F -4.0 °F 78% 29.83 in 10.0 mi WNW 10.4 mph - N/A   Clear
5:55 AM 2.3 °F -11.4 °F -3.5 °F 77% 29.83 in 10.0 mi NW 8.1 mph - N/A   Clear
6:15 AM 0.5 °F -11.0 °F -4.7 °F 79% 29.84 in 10.0 mi NW 5.8 mph - N/A   Clear
6:35 AM 1.0 °F -15.8 °F -4.4 °F 78% 29.85 in 10.0 mi NW 11.5 mph - N/A   Clear
6:55 AM 3.9 °F -15.6 °F -4.0 °F 70% 29.84 in 10.0 mi NW 17.3 mph 23.0 mph N/A   Clear
7:15 AM 3.0 °F -15.5 °F -4.7 °F 70% 29.85 in 10.0 mi NW 15.0 mph - N/A   Clear
7:35 AM 2.3 °F -14.2 °F -5.3 °F 71% 29.86 in 10.0 mi NW 11.5 mph 19.6 mph N/A   Clear
7:55 AM 1.8 °F -15.7 °F -5.4 °F 72% 29.87 in 10.0 mi NW 12.7 mph 18.4 mph N/A   Clear
8:15 AM 2.3 °F -14.2 °F -5.3 °F 71% 29.88 in 10.0 mi NW 11.5 mph - N/A   Clear
8:35 AM 1.4 °F -13.5 °F -5.8 °F 72% 29.90 in 10.0 mi NW 9.2 mph - N/A   Clear
8:55 AM 2.7 °F -14.5 °F -4.7 °F 71% 29.91 in 10.0 mi NW 12.7 mph - N/A   Clear
9:15 AM 2.3 °F -14.2 °F -4.9 °F 72% 29.93 in 10.0 mi NW 11.5 mph - N/A   Clear
9:35 AM 4.5 °F -13.0 °F -2.9 °F 72% 29.94 in 10.0 mi NNW 13.8 mph - N/A   Clear
9:55 AM 5.7 °F -12.0 °F -1.8 °F 71% 29.94 in 10.0 mi NNW 15.0 mph 23.0 mph N/A   Clear
10:15 AM 6.4 °F -13.8 °F -0.6 °F 73% 29.94 in 10.0 mi NNW 20.7 mph 26.5 mph N/A   Clear
10:35 AM 7.0 °F -13.1 °F -0.0 °F 73% 29.94 in 10.0 mi NNW 20.7 mph 29.9 mph N/A   Clear
10:55 AM 7.3 °F -12.2 °F 0.7 °F 74% 29.94 in 10.0 mi NNW 19.6 mph 24.2 mph N/A   Clear
11:15 AM 7.9 °F -11.0 °F 1.4 °F 75% 29.95 in 10.0 mi NNW 18.4 mph 24.2 mph N/A   Clear
11:55 AM 8.8 °F -11.2 °F 0.9 °F 70% 29.93 in 10.0 mi NNW 21.9 mph - N/A   Clear
12:15 PM 9.0 °F -12.2 °F 1.2 °F 71% 29.92 in 10.0 mi NNW 25.3 mph 29.9 mph N/A   Clear
12:35 PM 9.1 °F -11.2 °F 1.2 °F 70% 29.91 in 10.0 mi NNW 23.0 mph 28.8 mph N/A   Clear
12:55 PM 9.7 °F -10.4 °F 1.9 °F 71% 29.90 in 10.0 mi NNW 23.0 mph 27.6 mph N/A   Clear
1:15 PM 10.2 °F -9.7 °F 2.1 °F 70% 29.89 in 10.0 mi NNW 23.0 mph 28.8 mph N/A   Clear
1:35 PM 10.6 °F -9.2 °F 2.1 °F 69% 29.89 in 10.0 mi NNW 23.0 mph 26.5 mph N/A   Clear
1:55 PM 10.9 °F -6.5 °F 2.5 °F 69% 29.90 in 10.0 mi NNW 17.3 mph 25.3 mph N/A   Clear
2:15 PM 11.1 °F -5.7 °F 2.7 °F 69% 29.90 in 10.0 mi NNW 16.1 mph - N/A   Clear
2:35 PM 11.1 °F -7.7 °F 2.7 °F 69% 29.90 in 10.0 mi North 20.7 mph 24.2 mph N/A   Clear
2:55 PM 11.3 °F -5.5 °F 2.8 °F 69% 29.91 in 10.0 mi North 16.1 mph - N/A   Clear
3:15 PM 10.6 °F -6.4 °F 2.3 °F 69% 29.92 in 10.0 mi North 16.1 mph 24.2 mph N/A   Clear
3:35 PM 10.6 °F -6.4 °F 2.3 °F 69% 29.92 in 10.0 mi North 16.1 mph - N/A   Clear
3:55 PM 10.4 °F -5.4 °F 2.8 °F 72% 29.92 in 10.0 mi North 13.8 mph - N/A   Clear
4:15 PM 10.0 °F -7.1 °F 1.9 °F 70% 29.91 in 10.0 mi North 16.1 mph - N/A   Clear
4:35 PM 9.3 °F -8.6 °F 1.4 °F 70% 29.91 in 10.0 mi North 17.3 mph - N/A   Clear
4:55 PM 8.6 °F -7.0 °F 0.3 °F 69% 29.92 in 10.0 mi North 12.7 mph 19.6 mph N/A   Clear
5:15 PM 8.1 °F -7.0 °F 0.1 °F 70% 29.92 in 10.0 mi North 11.5 mph - N/A   Clear
5:35 PM 6.1 °F -4.3 °F -0.6 °F 74% 29.93 in 10.0 mi North 5.8 mph - N/A   Clear
5:55 PM 3.9 °F -6.9 °F -1.3 °F 79% 29.94 in 10.0 mi North 5.8 mph - N/A   Clear
6:15 PM 3.2 °F -9.1 °F -2.2 °F 78% 29.94 in 10.0 mi North 6.9 mph - N/A   Clear
6:35 PM 1.9 °F -9.2 °F -2.4 °F 82% 29.94 in 10.0 mi NNW 5.8 mph - N/A   Clear
6:55 PM -0.8 °F -10.8 °F -6.0 °F 79% 29.95 in 10.0 mi NW 4.6 mph - N/A   Clear
7:15 PM -1.1 °F -12.9 °F -5.4 °F 82% 29.96 in 10.0 mi WNW 5.8 mph - N/A   Clear
7:35 PM -5.3 °F -16.0 °F -9.8 °F 81% 29.96 in 10.0 mi WNW 4.6 mph - N/A   Clear
7:55 PM -4.9 °F -17.4 °F -8.9 °F 83% 29.96 in 10.0 mi WNW 5.8 mph - N/A   Clear
8:15 PM -5.3 °F -17.8 °F -9.6 °F 82% 29.96 in 10.0 mi WNW 5.8 mph - N/A   Clear
8:35 PM -4.9 °F -18.8 °F -9.4 °F 81% 29.96 in 10.0 mi WNW 6.9 mph - N/A   Clear
8:55 PM -7.4 °F -21.9 °F -11.9 °F 81% 29.96 in 10.0 mi WNW 6.9 mph - N/A   Clear
9:15 PM -5.4 °F -19.5 °F -9.8 °F 82% 29.96 in 10.0 mi West 6.9 mph - N/A   Clear
9:35 PM -6.2 °F -18.9 °F -10.8 °F 80% 29.96 in 10.0 mi West 5.8 mph - N/A   Clear
9:55 PM -7.6 °F -22.1 °F -12.6 °F 79% 29.96 in 10.0 mi West 6.9 mph - N/A   Clear
10:15 PM -7.2 °F - -11.2 °F 83% 29.96 in 10.0 mi Calm Calm - N/A   Clear
10:35 PM -7.6 °F -18.8 °F -12.1 °F 81% 29.97 in 10.0 mi West 4.6 mph - N/A   Clear
10:55 PM -8.7 °F -20.0 °F -13.5 °F 79% 29.97 in 10.0 mi West 4.6 mph - N/A   Clear
11:15 PM -6.7 °F -15.5 °F -10.8 °F 82% 29.97 in 10.0 mi West 3.5 mph - N/A   Clear
11:35 PM -7.6 °F -18.8 °F -12.3 °F 80% 29.97 in 10.0 mi West 4.6 mph - N/A   Clear
11:55 PM -7.8 °F -19.0 °F -12.6 °F 79% 29.97 in 10.0 mi West 4.6 mph - N/A   Clear